Flag for U.S.A. Weather past 2 weeks in Odessa, Texas, U.S.A.

Now
72 °F

Mostly cloudy.


Feels Like: 69 °F
Forecast: 69 / 75 °F
Wind: 7 mph from Southeast

Location: Odessa-Schlemeyer Field

Current Time: Sep 21, 2014 at 1:12:30 AM

Latest Report: Sep 21, 2014 at 12:53 AM


Visibility: 10 mi

Pressure: 29.97 "Hg

Humidity: 91%

Dew point: 69 °F

Location of OdessaLocation

Historic Weather in Odessa — Graph

°F

Odessa temperature yesterday

Maximum temperature yesterday: 82 °F (at 5:53 PM)
Minimum temperature yesterday: 70 °F (at 2:04 AM)
Average temperature yesterday: 75 °F

Past Weeks' High & Low Weather Summary

 TemperatureHumidityPressure
High96 °F (Sep 10, 2:53 PM)97% (Sep 7, 2:53 AM)30.35 "Hg (Sep 7, 2:53 AM)
Low49 °F (Sep 13, 8:00 AM)22% (Sep 10, 3:53 PM)29.70 "Hg (Sep 10, 5:53 PM)
Average71 °F76%29.98 "Hg
* Reported Sep 5 11:53 PM — Sep 20 11:53 PM, Odessa, Weather by CustomWeather, © 2014

Note: Actual official high and low records may vary slightly from our data, if they occured in-between our weather recording intervals... More about our weather records

Advertising

Odessa weather history for previous 24 hours

 ConditionsComfort  
Time TempWeatherWind HumidityBarometerVisibility
11:53 PM
Sep 20
73 °FOvercast.9 mph88%29.97 "Hg10 mi
10:53 PM73 °FPassing clouds.9 mph88%29.96 "Hg10 mi
9:53 PM75 °FPassing clouds.13 mph85%29.95 "Hg10 mi
8:53 PM76 °FMostly cloudy.15 mph82%29.91 "Hg10 mi
8:04 PM77 °FPassing clouds.13 mph77%30.01 "Hg9 mi
7:53 PM77 °FThundershowers. Scattered clouds.15 mph77%29.87 "Hg8 mi
6:53 PM80 °FPartly sunny.10 mph67%29.86 "Hg10 mi
5:53 PM82 °FPassing clouds.7 mph63%29.85 "Hg9 mi
5:00 PM81 °FScattered clouds.8 mph65%29.99 "Hg9 mi
3:53 PM80 °FSunny.7 mph69%29.87 "Hg8 mi
2:53 PM78 °FScattered clouds.5 mph76%29.88 "Hg7 mi
1:53 PM77 °FBroken clouds.9 mph79%29.91 "Hg7 mi
12:53 PM77 °FCloudy.8 mph79%29.92 "Hg6 mi
7:53 AM71 °FFog.8 mph93%29.87 "Hg5 mi
6:53 AM71 °FMostly cloudy.8 mph90%29.86 "Hg7 mi
5:53 AM71 °FMostly cloudy.8 mph90%29.85 "Hg8 mi
5:03 AM70 °FPassing clouds.9 mph93%29.98 "Hg9 mi
3:51 AM71 °FLight rain. Partly cloudy.8 mph90%29.85 "Hg8 mi
3:01 AM71 °FLight rain. Fog.7 mph93%29.98 "Hg6 mi
2:04 AM70 °FHeavy rain. Fog.9 mph90%29.98 "Hg2 mi
Weather by CustomWeather, © 2014

See weather overviewHow to use our weather pages